Home   Weather   Springfield   Past weeks

Flag for USA Past Weather in Springfield, Illinois, USA — Yesterday and Last 2 Weeks

Now
38 °F

Overcast.


Feels Like: 38 °F
Forecast: 34 / 46 °F
Wind: No wind

Location: Capital Airport

Current Time: Jan 24, 2017 at 7:24:42 am

Latest Report: Jan 24, 2017 at 6:52 am


Visibility: 10 mi

Pressure: 29.91 "Hg

Humidity: 86%

Dew Point: 34 °F

Location of SpringfieldLocation

Past Weather in Springfield — Graph

°F

Springfield Temperature Yesterday

Maximum temperature yesterday: 44 °F (at 11:52 am)
Minimum temperature yesterday: 39 °F (at 4:52 am)
Average temperature yesterday: 41 °F

High & Low Weather Summary for the Past Weeks

 TemperatureHumidityPressure
High65 °F (Jan 21, 2:52 pm)97% (Jan 11, 11:36 pm)30.75 "Hg (Jan 11, 11:36 pm)
Low20 °F (Jan 13, 2:52 am)47% (Jan 21, 2:52 pm)29.41 "Hg (Jan 10, 12:52 pm)
Average41 °F85%29.97 "Hg
* Reported Jan 9 5:52 am — Jan 24 5:52 am, Springfield, Weather by CustomWeather, © 2017

Note: Actual official high and low records may vary slightly from our data, if they occured in-between our weather recording intervals... More about our weather records

Advertising

Springfield Weather History for the Previous 24 Hours

Scroll right to see more
 ConditionsComfort  
Time TempWeatherWind HumidityBarometerVisibility
5:52 am
Tue, Jan 24
38 °FOvercast.3 mph83%29.92 "Hg10 mi
4:52 am38 °FOvercast.5 mph86%29.91 "Hg10 mi
3:52 am38 °FOvercast.6 mph83%29.89 "Hg10 mi
2:52 am38 °FOvercast.5 mph86%29.89 "Hg10 mi
1:52 am38 °FOvercast.6 mph86%29.87 "Hg10 mi
1:22 am39 °FMostly cloudy.5 mph86%29.86 "Hg10 mi
12:52 am39 °FOvercast.5 mph86%29.87 "Hg10 mi
11:52 pm
Mon, Jan 23
39 °FOvercast.6 mph86%29.88 "Hg10 mi
10:52 pm40 °FOvercast.3 mph80%29.87 "Hg10 mi
9:52 pm40 °FOvercast.3 mph80%29.87 "Hg10 mi
8:52 pm40 °FOvercast.7 mph83%29.86 "Hg10 mi
7:52 pm41 °FOvercast.7 mph80%29.86 "Hg10 mi
6:52 pm41 °FOvercast.7 mph76%29.85 "Hg10 mi
5:52 pm41 °FOvercast.9 mph76%29.86 "Hg10 mi
4:52 pm42 °FOvercast.13 mph73%29.83 "Hg10 mi
3:52 pm43 °FOvercast.10 mph74%29.81 "Hg10 mi
2:52 pm43 °FOvercast.12 mph74%29.81 "Hg10 mi
1:52 pm44 °FOvercast.8 mph71%29.80 "Hg10 mi
12:52 pm44 °FOvercast.12 mph73%29.81 "Hg10 mi
11:52 am44 °FOvercast.12 mph73%29.83 "Hg10 mi
11:26 am43 °FOvercast.12 mph76%29.82 "Hg9 mi
10:52 am42 °FMostly cloudy.10 mph79%29.82 "Hg6 mi
9:52 am40 °FFog.12 mph86%29.83 "Hg5 mi
8:52 am39 °FFog.10 mph86%29.83 "Hg6 mi
7:52 am39 °FLow clouds.12 mph86%29.82 "Hg7 mi
Weather by CustomWeather, © 2017

See weather overviewHow to use our weather pages